Theta_e
291 287 284 286 288 288 287 286 286 285 290 290 288 289 290 291 289 291 292 292 293 295 302 300 310 318 320 323 325 326 326 326 327 327 327 329 328 329 328 328 328 329 329 327
288 284 289 291 290 288 285 284 284 287 290 288 286 288 290 290 291 292 292 290 292 293 294 295 295 301 314 320 325 325 326 327 327 328 328 327 329 329 330 330 327 328 328 327
286 288 291 290 287 287 283 283 283 286 287 286 284 285 286 290 290 291 292 293 294 295 295 294 294 295 303 314 322 325 326 327 328 328 326 323 327 327 327 327 327 326 327 326
287 290 290 287 286 287 283 287 287 286 284 280 283 279 283 285 288 289 292 294 294 296 294 294 294 293 297 308 316 324 326 326 327 327 325 324 324 322 325 325 324 325 326 326
285 287 287 285 286 288 285 288 287 284 282 280 279 278 281 282 286 289 291 292 293 294 293 294 294 293 294 300 305 313 319 322 324 324 325 324 323 324 320 320 321 323 321 323
287 289 290 289 288 289 288 286 285 283 282 277 279 280 279 282 287 288 287 289 291 291 291 294 298 300 300 301 301 302 303 308 315 322 324 323 323 322 318 319 321 323 325 325
284 285 286 289 286 286 285 282 276 276 275 276 278 277 282 285 287 287 287 289 289 291 293 296 297 299 300 300 303 303 303 302 302 301 313 325 324 324 320 321 322 323 323 321
282 280 286 288 287 284 283 283 277 272 272 276 279 278 282 287 288 288 287 288 292 292 294 294 296 297 298 299 302 302 302 302 303 302 299 301 322 325 324 324 323 322 322 322
280 281 287 288 288 290 284 281 284 278 269 274 278 280 286 287 287 287 287 289 291 292 293 294 294 296 297 298 299 301 301 302 302 303 304 300 303 319 321 320 318 320 319 319
285 281 286 287 289 288 286 288 282 279 271 271 276 277 280 284 286 287 287 289 289 291 293 294 294 295 295 294 296 300 300 301 301 301 306 308 310 313 315 315 315 315 314 312
286 285 283 286 285 283 283 282 281 282 280 274 272 277 283 285 285 286 287 288 289 291 292 293 293 294 294 294 295 296 298 299 299 300 304 306 305 306 307 307 306 305 306 307
288 285 280 282 285 286 285 285 285 282 276 276 277 279 285 286 286 287 287 287 286 290 292 293 293 292 292 292 293 294 294 295 295 295 296 298 300 300 300 300 300 301 301 300
289 282 277 281 284 285 283 283 285 282 281 277 275 278 287 286 288 288 290 289 290 289 289 291 291 291 291 291 292 292 292 292 292 293 293 294 295 295 295 295 295 295 295 294
293 284 283 279 282 285 282 284 284 284 280 279 280 280 283 285 288 288 289 290 290 290 291 290 290 291 291 291 290 290 290 290 290 291 291 290 291 291 291 291 290 290 290 289
289 280 281 281 283 285 283 284 284 284 286 282 284 282 284 286 287 286 286 290 290 290 290 290 290 290 290 289 289 289 289 288 288 288 288 287 287 287 286 286 285 284 284 284
286 276 281 278 282 283 282 284 285 285 285 283 280 281 286 287 285 286 287 288 288 289 290 290 291 291 290 290 289 289 288 286 286 285 283 284 285 284 284 283 283 283 282 281
285 278 275 271 280 281 278 282 283 285 284 285 282 287 287 284 287 287 287 287 287 289 290 290 290 291 290 289 290 287 286 284 283 282 281 281 281 281 281 281 280 280 280 280
284 283 280 273 275 273 283 285 288 286 286 288 286 286 287 288 287 288 288 289 289 290 290 290 290 290 289 288 287 284 283 282 281 281 280 280 280 279 279 279 279 279 279 279
287 285 278 276 265 277 280 283 283 283 285 287 288 287 288 288 288 287 289 288 288 288 288 288 289 289 287 286 283 283 281 281 280 279 279 278 278 277 277 275 276 276 277 277
286 287 284 272 272 272 280 285 286 288 283 287 287 286 287 287 282 286 289 286 285 284 283 283 284 284 284 282 282 281 279 278 277 277 277 277 276 274 274 275 274 271 272 276
278 279 282 272 273 276 282 284 286 280 282 281 286 287 286 286 287 287 286 284 282 282 281 281 281 281 281 281 281 279 277 276 276 276 275 274 274 273 273 271 271 270 273 275
282 281 278 272 271 277 283 284 284 285 283 283 285 285 286 286 287 286 284 283 281 279 279 279 277 278 278 279 278 276 275 274 274 273 272 271 269 273 271 269 271 276 276 275
282 284 280 283 282 284 283 285 286 287 286 285 286 285 287 286 286 285 284 282 281 278 278 275 274 273 273 274 276 275 273 273 272 271 269 268 272 275 276 275 274 273 273 273
279 282 284 282 282 283 286 286 286 287 286 286 286 286 286 286 285 284 283 282 280 276 276 272 272 271 270 269 272 271 272 272 271 270 273 275 275 274 274 274 275 274 274 274
281 283 279 277 281 284 285 286 287 286 286 285 285 285 286 286 284 283 279 278 279 277 273 272 272 271 269 266 266 268 271 273 273 274 274 274 274 274 272 272 273 274 274 275
281 281 282 279 285 285 286 286 286 285 284 284 284 282 283 283 283 281 277 279 276 274 272 271 270 269 267 265 267 268 271 274 273 273 273 272 271 272 272 273 273 277 278 278
Wind_Speed
2 5 7 8 7 7 6 6 6 3 0 3 6 6 8 4 4 8 9 9 9 13 15 8 9 11 8 7 9 11 11 11 9 7 8 8 8 6 6 6 8 8 7 8
5 6 7 7 5 5 3 5 5 2 2 3 1 11 9 6 7 9 11 9 12 8 9 9 10 9 11 13 13 13 13 12 11 9 8 8 7 5 5 6 7 9 8 8
8 7 8 7 6 6 4 6 5 5 4 2 3 8 5 7 5 6 8 10 9 16 15 10 8 10 7 11 14 14 14 14 13 13 5 2 4 2 3 4 5 6 8 9
6 3 10 5 6 7 5 5 6 8 6 4 2 7 6 5 9 6 11 13 16 14 9 7 6 7 9 10 6 10 11 12 11 11 8 11 10 11 8 7 4 6 10 10
8 8 7 5 6 6 6 5 6 4 5 5 1 1 8 1 7 10 14 14 11 9 8 9 8 6 4 6 7 6 6 7 8 9 11 9 10 7 3 3 7 8 6 8
5 2 8 10 4 7 10 7 7 5 3 2 7 7 7 5 9 8 3 3 7 7 7 4 5 5 4 3 2 3 5 6 5 7 11 11 12 9 6 6 7 7 7 7
3 2 1 5 8 3 3 7 3 2 2 5 2 2 9 9 10 6 5 7 2 3 5 6 7 5 4 3 3 3 3 4 3 4 5 11 12 11 11 10 8 8 7 5
9 6 9 5 8 10 6 9 8 7 4 4 1 9 9 6 7 7 5 1 4 4 3 5 5 4 3 4 4 4 3 3 4 5 7 7 9 8 8 9 7 6 7 7
7 5 1 2 5 11 7 6 8 9 2 3 6 7 12 5 7 2 5 4 5 4 3 4 3 2 2 3 4 3 2 1 2 2 4 6 6 9 13 6 4 4 4 4
7 6 1 2 4 3 9 11 5 2 5 4 5 6 7 4 5 5 5 5 6 4 5 2 2 1 1 1 2 3 2 1 0 1 0 1 3 3 4 4 4 3 0 1
6 6 3 4 7 9 5 5 4 7 6 7 1 7 7 5 2 2 7 8 7 7 6 5 4 4 2 1 1 1 1 2 3 3 2 3 3 3 4 4 4 4 4 5
3 7 6 4 2 1 2 7 6 7 6 1 3 8 2 4 2 6 6 4 4 5 5 5 5 4 4 3 1 0 2 3 3 2 3 3 3 4 5 5 5 5 6 6
8 1 6 5 5 1 6 3 5 6 4 7 7 7 3 3 5 3 7 5 3 3 2 2 4 5 4 3 3 2 1 2 2 3 4 4 4 5 5 5 6 6 6 7
9 5 9 13 12 9 6 6 6 6 2 4 9 4 3 4 6 4 4 4 4 3 5 5 6 7 6 6 5 4 3 2 2 3 3 5 5 5 5 6 7 8 7 8
7 8 5 2 6 8 4 10 12 15 21 13 12 11 7 9 9 4 2 4 4 5 6 8 6 5 5 5 5 4 3 4 3 4 4 5 5 6 6 8 8 7 8 7
4 2 4 3 3 4 5 10 17 22 14 10 3 2 6 8 4 4 3 1 4 5 6 5 7 7 8 8 7 6 6 5 4 5 5 4 6 6 6 7 7 7 7 7
9 7 5 6 1 6 6 18 15 13 10 12 18 11 7 4 7 6 3 3 2 6 8 9 6 7 8 8 8 8 7 5 6 6 5 5 6 7 6 6 7 7 7 7
8 8 4 4 2 5 11 7 18 21 12 21 6 7 11 9 5 5 2 1 3 5 6 7 7 6 6 6 7 7 7 6 7 6 6 6 6 7 6 6 6 6 5 6
2 6 4 8 5 5 4 5 9 12 17 15 19 8 7 6 4 1 4 1 1 3 6 6 7 5 3 6 6 8 7 6 6 6 5 5 5 6 6 6 5 4 6 6
3 2 6 5 7 14 3 7 6 8 21 9 11 10 10 8 4 4 6 2 1 3 4 6 6 4 4 4 7 8 7 6 6 5 5 5 6 6 7 6 6 2 3 5
4 2 14 3 6 10 5 4 4 12 9 1 6 10 9 7 4 7 5 4 3 4 6 6 7 5 3 5 6 7 7 6 5 6 6 5 4 5 5 4 3 3 5 6
11 12 6 4 3 16 7 4 14 4 2 4 5 5 8 8 7 6 5 5 3 2 3 4 4 4 3 4 6 7 7 6 7 7 7 6 5 3 4 5 3 4 4 5
7 8 8 10 7 2 4 1 3 4 6 5 7 4 7 8 5 5 3 3 3 2 2 2 3 3 3 2 5 8 6 8 8 7 7 5 6 5 4 5 5 3 4 3
4 3 6 5 4 4 5 3 3 4 5 6 6 7 5 7 6 3 1 1 1 2 2 2 4 3 3 1 3 4 8 8 9 9 8 6 6 5 4 3 3 4 3 3
5 8 6 1 3 6 2 2 5 6 8 8 6 5 6 6 3 3 2 3 5 5 3 4 5 4 4 3 3 5 8 9 8 8 7 6 5 6 6 3 3 3 2 5
4 7 7 6 11 4 6 7 6 8 7 7 7 5 3 4 4 3 4 5 5 5 3 3 5 4 5 4 6 6 7 10 10 9 7 7 6 6 5 5 4 6 6 7
Wind_Direction
148 129 184 174 171 168 159 157 161 170 69 157 220 260 249 212 200 230 233 227 230 234 243 226 228 223 210 198 195 200 194 198 194 195 204 207 215 204 201 206 197 194 198 196
75 198 209 171 154 135 141 164 171 70 71 161 308 264 253 219 232 207 222 225 231 242 249 241 225 213 202 205 202 199 203 197 199 203 207 212 213 219 217 202 202 196 191 190
158 198 159 160 159 153 178 166 184 161 140 114 6 284 253 248 233 241 236 229 228 227 235 239 215 219 199 205 204 199 202 200 200 202 191 187 229 154 191 195 207 208 196 193
167 167 158 156 185 130 188 198 156 140 129 190 76 279 276 260 262 228 245 236 232 233 240 242 217 208 208 218 198 201 204 201 201 193 196 199 209 217 219 216 192 202 202 201
206 150 137 168 179 145 215 132 132 106 98 98 158 217 265 335 275 248 235 234 238 235 214 230 239 238 197 170 186 171 177 188 192 188 200 199 211 221 207 193 193 201 202 210
169 150 160 175 110 159 145 90 49 60 114 237 199 162 264 194 214 256 247 263 256 245 229 123 87 98 83 73 107 140 172 198 198 188 200 203 213 210 193 197 207 215 213 212
111 166 165 131 92 73 150 104 24 2 326 222 119 184 245 240 240 227 263 303 330 108 140 138 127 122 107 108 70 46 16 315 307 262 250 221 225 219 213 207 215 218 213 197
157 196 168 178 164 158 179 149 149 178 214 221 116 236 245 230 254 253 261 6 109 124 128 139 156 144 122 90 82 70 57 355 345 296 262 254 254 233 228 225 222 220 223 219
143 181 76 141 141 155 190 185 155 105 37 40 218 297 300 282 263 224 187 145 166 171 159 173 153 95 68 55 57 55 81 114 76 330 299 262 255 248 244 232 216 212 229 254
195 113 126 137 110 57 178 153 118 49 137 256 282 282 238 278 243 173 200 204 204 180 186 166 105 115 150 112 53 46 32 253 182 137 156 267 264 209 181 169 180 188 32 359
133 103 198 133 205 162 138 178 68 115 151 170 218 263 223 261 274 163 217 203 207 205 189 182 191 201 207 105 124 121 40 22 19 28 17 54 52 59 77 95 98 90 83 75
141 114 132 204 233 181 206 168 155 180 205 163 136 273 36 319 256 114 102 139 179 198 192 198 203 193 198 202 191 63 37 64 49 60 88 78 64 61 70 72 63 68 69 58
177 36 89 24 344 67 198 195 164 99 74 194 145 249 11 302 76 82 112 134 145 147 175 217 201 211 219 212 211 194 159 116 71 79 90 68 62 67 67 71 66 63 71 64
103 130 158 196 212 124 166 159 163 132 204 154 228 176 243 226 188 173 167 134 126 177 203 219 233 223 216 213 205 192 171 148 112 102 108 96 74 66 54 61 62 60 59 69
141 164 165 106 165 152 151 178 177 197 217 197 236 185 216 203 193 239 197 137 174 223 230 231 240 235 223 213 205 193 175 154 148 133 119 101 84 80 82 76 75 74 76 79
19 173 111 352 97 133 163 189 191 213 220 242 118 217 234 230 198 164 172 73 335 302 280 263 242 229 216 204 195 184 176 164 137 128 116 100 93 84 82 87 89 89 82 72
136 121 87 240 94 73 316 211 200 211 208 212 234 207 178 178 189 197 175 155 266 292 298 305 284 228 211 200 181 184 170 145 138 130 122 113 108 101 94 93 87 81 79 81
140 117 106 160 74 184 256 183 197 202 215 222 224 141 179 180 166 123 83 153 288 294 310 312 311 294 237 177 159 137 143 144 137 132 131 128 120 112 104 93 92 90 84 88
81 128 115 150 202 285 248 205 152 176 241 215 223 174 158 122 73 296 152 124 291 330 312 305 304 295 175 162 138 132 129 125 127 131 127 113 109 108 106 102 109 97 105 91
49 189 139 140 165 220 165 193 159 93 260 181 155 167 159 138 159 225 156 156 69 12 358 343 341 6 95 104 123 128 133 138 142 138 127 117 118 126 124 123 116 88 85 95
114 62 200 173 221 281 240 181 161 160 255 142 159 149 147 154 168 136 130 98 45 23 360 6 26 44 67 115 119 120 130 138 123 105 101 93 87 103 110 117 97 112 105 103
165 168 188 105 105 248 163 73 168 224 60 130 114 122 117 117 121 114 112 101 78 37 18 29 64 76 73 119 115 128 137 132 121 116 103 94 75 72 70 70 53 71 85 99
208 192 179 188 209 226 197 305 107 121 136 155 125 131 122 127 138 148 146 139 149 105 66 49 119 100 37 85 143 149 154 136 126 116 120 118 116 111 107 111 102 83 60 55
265 191 154 106 215 171 160 88 86 111 111 135 126 135 127 130 137 119 200 276 249 152 171 152 140 171 205 255 107 123 146 139 137 137 139 131 127 117 96 96 112 121 129 141
189 137 147 60 79 85 351 165 138 105 108 109 90 111 124 109 123 176 199 222 229 217 183 169 191 194 202 180 142 152 149 148 142 143 145 140 141 148 139 124 128 146 150 176
191 162 170 205 177 153 161 152 135 120 122 129 118 95 96 132 163 179 211 211 193 193 158 177 202 183 194 178 162 173 166 163 154 156 161 162 157 157 151 149 131 162 176 167